Rochester, MN
on Wednesday, June 26, 2013

Wednesday
Previous Day Next Day
Daily Summary
 ActualAverageRecord
Temperature
Mean Temperature °F 70°F  
Max Temperature 86°F 81°F 99°F (1934)
Min Temperature 69°F 60°F 44°F (1955)
Degree Days
Heating Degree Days 0 1  
Month to date heating degree days 60 52  
Since 1 June heating degree days 60  
Since 1 July heating degree days 7825 7722  
Cooling Degree Days 13 6  
Month to date cooling degree days 109 104  
Year to date cooling degree days 139 138  
Since 1 June cooling degree days 109  
Growing Degree Days28 (Base °F )  
Moisture
Dew Point 70°F   
Average Humidity 81    
Maximum Humidity 100    
Minimum Humidity 61    
Precipitation
Precipitation T in 0.15 in 2.00 in (1941)
Month to date precipitation 6.42 4.05  
Year to date precipitation 30.32 14.49  
Since 1 June precipitation 6.42 4.05  
Snow
Snow 0.00 in 0.00 in 0.00 in (2012)
Month to date snowfall 0.0 0.0  
Since 1 June snowfall 0.0  
Since 1 July snowfall 74.0 51.9  
Snow Depth 0.00 in   
Wind
Wind Speed 10 mph   
Max Wind Speed 21 mph   
Max Gust Speed 26 mph   
Visibility 5 miles   
Events Fog , Rain   

Key: T is trace of precipitation, MM is missing value
Source: NWS Daily Summary
Time(CDT)TemperatureDew PointHumidity Pressure Visibility Wind DirectionWind SpeedGust SpeedPrecipitationEvents Conditions
12:54 AM 72.0°F 71.1°F 97% 29.73 in 3.0 miles SSE 6.9 mph - N/A   Clear
1:04 AM 71.6°F 71.6°F 100% 29.75 in 2.0 miles SSE 6.9 mph - N/A   Clear
1:16 AM 71.6°F 71.6°F 100% 29.75 in 1.8 miles SSE 6.9 mph - N/A   Partly Cloudy
1:26 AM 71.6°F 71.6°F 100% 29.75 in 1.2 miles SSE 4.6 mph - N/A   Mostly Cloudy
1:39 AM 71.6°F 71.6°F 100% 29.74 in 0.8 miles SSE 5.8 mph - N/A   Mist
1:54 AM 72.0°F 71.1°F 97% 29.71 in 0.8 miles SSE 8.1 mph - N/A   Mist
2:01 AM 71.6°F 71.6°F 100% 29.73 in 1.5 miles SSE 6.9 mph - N/A   Overcast
2:49 AM 71.6°F 69.8°F 94% 29.72 in 2.0 miles SSE 6.9 mph - N/A   Scattered Clouds
2:54 AM 71.1°F 70.0°F 96% 29.69 in 2.0 miles SE 5.8 mph - N/A   Partly Cloudy
3:14 AM 71.6°F 69.8°F 94% 29.72 in 1.2 miles SE 6.9 mph - N/A   Clear
3:23 AM 71.6°F 69.8°F 94% 29.72 in 0.8 miles SSE 5.8 mph - N/A   Mist
3:31 AM 71.6°F 69.8°F 94% 29.72 in 1.0 miles SSE 9.2 mph - N/A   Mist
3:36 AM 71.6°F 69.8°F 94% 29.72 in 1.5 miles SSE 9.2 mph - N/A   Scattered Clouds
3:41 AM 71.6°F 69.8°F 94% 29.72 in 2.0 miles SE 8.1 mph - N/A   Mostly Cloudy
3:54 AM 71.1°F 70.0°F 96% 29.69 in 2.5 miles SE 8.1 mph - N/A   Mostly Cloudy
4:08 AM 71.6°F 69.8°F 94% 29.72 in 1.2 miles SE 8.1 mph - N/A   Mostly Cloudy
4:16 AM 71.6°F 69.8°F 94% 29.72 in 0.5 miles SSE 6.9 mph - N/A Fog Fog
4:29 AM 71.6°F 69.8°F 94% 29.72 in 1.5 miles SSE 5.8 mph - N/A   Overcast
4:38 AM 71.6°F 69.8°F 94% 29.72 in 2.5 miles SSE 5.8 mph - N/A   Overcast
4:49 AM 71.6°F 69.8°F 94% 29.72 in 2.0 miles SSE 6.9 mph - N/A   Mostly Cloudy
4:54 AM 71.1°F 70.0°F 96% 29.70 in 1.5 miles SSE 6.9 mph - N/A   Mostly Cloudy
5:00 AM 71.6°F 69.8°F 94% 29.72 in 2.0 miles SSE 6.9 mph - N/A   Mostly Cloudy
5:11 AM 71.6°F 69.8°F 94% 29.72 in 3.0 miles SSE 6.9 mph - N/A   Mostly Cloudy
5:37 AM 69.8°F 69.8°F 100% 29.71 in 2.0 miles SSE 6.9 mph - 0.00 in Rain Light Rain
5:54 AM 71.1°F 69.1°F 93% 29.69 in 2.0 miles SE 8.1 mph - 0.00 in   Mostly Cloudy
5:56 AM 71.6°F 69.8°F 94% 29.72 in 1.8 miles SE 8.1 mph - N/A   Mostly Cloudy
6:06 AM 71.6°F 69.8°F 94% 29.72 in 1.2 miles SE 6.9 mph - N/A   Mostly Cloudy
6:17 AM 71.6°F 69.8°F 94% 29.72 in 1.2 miles SE 5.8 mph - N/A   Overcast
6:35 AM 71.6°F 69.8°F 94% 29.72 in 1.8 miles SSE 8.1 mph - N/A   Overcast
6:54 AM 72.0°F 70.0°F 93% 29.70 in 2.0 miles South 9.2 mph - N/A   Overcast
7:20 AM 71.6°F 71.6°F 100% 29.73 in 2.0 miles South 6.9 mph - N/A   Mostly Cloudy
7:33 AM 71.6°F 71.6°F 100% 29.74 in 3.0 miles South 5.8 mph - N/A   Mostly Cloudy
7:54 AM 73.9°F 71.1°F 91% 29.73 in 6.0 miles South 5.8 mph - N/A   Mostly Cloudy
8:15 AM 73.4°F 69.8°F 88% 29.74 in 8.0 miles South 5.8 mph - N/A   Scattered Clouds
8:54 AM 75.9°F 72.0°F 87% 29.71 in 10.0 miles South 12.7 mph - N/A   Partly Cloudy
9:17 AM 75.2°F 69.8°F 83% 29.72 in 10.0 miles South 12.7 mph - N/A   Mostly Cloudy
9:54 AM 75.9°F 70.0°F 82% 29.69 in 10.0 miles South 12.7 mph - N/A   Scattered Clouds
10:01 AM 75.2°F 69.8°F 83% 29.73 in 10.0 miles South 5.8 mph 17.3 mph N/A   Mostly Cloudy
10:46 AM 75.2°F 69.8°F 83% 29.75 in 10.0 miles SSW 3.5 mph - N/A   Scattered Clouds
10:52 AM 75.2°F 69.8°F 83% 29.75 in 10.0 miles South 5.8 mph - N/A   Mostly Cloudy
10:53 AM 75.9°F 70.0°F 82% 29.73 in 10.0 miles South 5.8 mph - N/A   Mostly Cloudy
11:54 AM 75.9°F 70.0°F 82% 29.74 in 10.0 miles South 8.1 mph - N/A   Overcast
12:54 PM 75.9°F 70.0°F 82% 29.75 in 10.0 miles South 10.4 mph - N/A   Overcast
1:54 PM 78.1°F 71.1°F 79% 29.74 in 10.0 miles SSW 15.0 mph - N/A   Overcast
2:05 PM 78.8°F 71.6°F 78% 29.76 in 10.0 miles South 12.7 mph - N/A   Overcast
2:19 PM 78.8°F 71.6°F 78% 29.76 in 10.0 miles South 9.2 mph - N/A   Mostly Cloudy
2:54 PM 80.1°F 73.0°F 79% 29.73 in 10.0 miles SSW 13.8 mph - N/A   Partly Cloudy
3:54 PM 82.0°F 73.9°F 76% 29.75 in 10.0 miles SW 9.2 mph - N/A   Mostly Cloudy
4:10 PM 80.6°F 73.4°F 79% 29.77 in 10.0 miles South 4.6 mph - N/A   Mostly Cloudy
4:54 PM 84.9°F 72.0°F 65% 29.72 in 10.0 miles West 17.3 mph - N/A   Partly Cloudy
5:54 PM 84.9°F 70.0°F 61% 29.72 in 10.0 miles WNW 18.4 mph - N/A   Partly Cloudy
6:54 PM 82.9°F 68.0°F 60% 29.73 in 10.0 miles WNW 19.6 mph - N/A   Clear
7:54 PM 79.0°F 66.9°F 66% 29.75 in 10.0 miles NW 10.4 mph - N/A   Clear
8:54 PM 75.9°F 64.9°F 69% 29.77 in 10.0 miles NW 9.2 mph - N/A   Clear
9:54 PM 73.0°F 64.9°F 76% 29.79 in 10.0 miles NW 9.2 mph - N/A   Clear
10:54 PM 71.1°F 64.9°F 81% 29.81 in 10.0 miles WNW 8.1 mph - N/A   Clear
11:54 PM 72.0°F 64.0°F 76% 29.83 in 10.0 miles WNW 8.1 mph - N/A   Clear
Astronomy
Sunrise:05:29 AM (CDT) Moon Rise:11:10 PM (CDT)6/26
Sunset:08:56 PM (CDT) Moon Set:09:29 AM (CDT)6/26
Moon Phase
Jun. 26 Jun. 30 Jul. 08 Jul. 16 Jul. 22

Copyright © 2016 The Weather Underground, Inc.